Tracking 30692 objects as of 16-Jun-2025
HD Live streaming from Space Station
objects crossing your sky now

QAEM 100 R/B

Track QAEM 100 R/B now!
10-day predictions


NORAD ID: 58818
Int'l Code: 2024-015B
Perigee: 724.0 km
Apogee: 780.6 km
Inclination: 64.5 °
Period: 99.7 minutes
Semi major axis: 7123 km
RCS: Unknown
Launch date: January 20, 2024
Source: Iran (IRAN)
Launch site: Sharud Missile Test Site (SMTS)

Note: This is a ROCKET BODY
Your satellite tracking list
Your tracking list is empty




NASA's NSSDC Master Catalog

Two Line Element Set (TLE):
1 58818U 24015B   25167.41069459  .00000121  00000-0  66444-4 0  9993
2 58818  64.5034  59.1597 0039729 285.0040  74.6650 14.44039098 74088
Source of the keplerian elements: AFSPC